Location: Coed Ely
(51.5661°N, 3.4150°W)
Time: 23:59:50
(UTC+00:00)

Cosmos 2266 Rocket - Pass Details

Date: 28 January 2021
Orbit: 934 x 1008 km, 82.9° (Epoch: 01 March)

Event Time Altitude Azimuth Distance (km) Brightness Sun altitude
Rises 19:06:43 0° 169° (S) 3,671 6.9 -20.2°
Reaches altitude 10° 19:09:18 10° 165° (SSE) 2,717 6.2 -20.6°
Maximum altitude 19:15:16 50° 91° (E) 1,205 4.0 -21.5°
Drops below altitude 10° 19:21:09 10° 18° (NNE) 2,686 6.1 -22.4°
Sets 19:23:41 0° 14° (NNE) 3,627 6.9 -22.8°
